Location: Pcim
(49.7500°N, 19.9670°E)
Time: 09:40:22
(UTC+02:00)

EO-79 - Pass Details

Date: 25 April 2024
Orbit: 563 x 574 km, 98.0° (Epoch: 20 May)

Event Time Altitude Azimuth Distance (km) Brightness Sun altitude
Rises 04:42:09 0° 6° (N) 2,801 ? -7.4°
Reaches altitude 10° 04:44:27 10° 357° (N) 1,900 ? -7.1°
Maximum altitude 04:48:09 33° 293° (WNW) 979 ? -6.6°
Drops below altitude 10° 04:51:50 10° 229° (SW) 1,890 ? -6.0°
Enters shadow 04:52:37 - 225° (SW) 2,188 ? -5.9°
